Weather Roundup
Issued by NWS Chicago, IL

Home | Current Version | Previous Version | Graphics & Text | Print | Product List | Glossary On
Versions: 1 2 3 4 5 6 7 8 9 10 11 12 13 14 15 16 17 18 19 20 21 22 23 24 25 26 27 28 29 30 31 32 33 34 35 36 37 38 39 40 41 42 43 44 45 46 47 48 49 50
000
NZUS59 KLOT 311910
HRRLOT

CHICAGO AREA WEATHER ROUNDUP
NATIONAL WEATHER SERVICE CHICAGO/ROMEOVILLE IL
100 PM CST SAT JAN 31 2015

NOTE: "FAIR" INDICATES FEW OR NO CLOUDS BELOW 12,000 FEET WITH NO
SIGNIFICANT WEATHER AND/OR OBSTRUCTIONS TO VISIBILITY.

* THESE STATIONS ARE NOT UNDER NWS QUALITY CONTROL. THEY ALSO MAY NOT
  REPORT WEATHER SUCH AS PRECIPITATION OR FOG.

ILZ005-006-012>014-019>023-312000-
NORTHEAST ILLINOIS

CITY           SKY/WX    TMP DP  RH WIND       PRES   REMARKS
OHARE          CLOUDY    35  23  61 W10       30.16F WCI  27
MIDWAY         CLOUDY    38  26  62 SW10      30.17F
AURORA         CLOUDY    37  26  64 SW10      30.17F
LANSING*       CLOUDY    37  26  63 SW13      30.19F
JOLIET*        CLOUDY    37  26  67 W8        30.19F
WAUKEGAN       PTSUNNY   36  22  56 W6        30.15F
DUPAGE AIRPORT CLOUDY    35  26  69 SW10      30.16F WCI  27
WHEELING       PTSUNNY   36  23  59 W8        30.18F
KANKAKEE*      CLOUDY    37  29  74 SW8       30.21F
MORRIS*        CLOUDY    37  30  77 SW6       30.18F
LEWIS AIRPORT* CLOUDY    37  27  67 W13       30.18F
NORTHERLY IS     N/A     36  23  59 SW7         N/A
$$

WIZ051-052-058>065-066-070>072-312000-
SOUTHEAST WISCONSIN

CITY           SKY/WX    TMP DP  RH WIND       PRES   REMARKS
MILWAUKEE      PTSUNNY   36  19  50 W7        30.16F
KENOSHA*       PTSUNNY   35  22  58 NW8       30.16F WCI  29
RACINE*        PTSUNNY   35  20  54 NW6       30.17F WCI  30
BURLINGTON     PTSUNNY   32  21  63 NW5       30.16S WCI  27
WAUKESHA       MOSUNNY   30  19  64 NW7       30.16F WCI  23
WEST BEND      CLOUDY    30  19  64 NW5       30.15F WCI  25
$$

INZ001>003-010>013-019-020-312000-
NORTHWEST INDIANA

CITY           SKY/WX    TMP DP  RH WIND       PRES   REMARKS
GARY*          CLOUDY    37  21  52 SW10      30.18
MICHIGAN CITY* NOT AVBL
RENSSELAER*    NOT AVBL
VALPARAISO     CLOUDY    36  25  64 SW12      30.19F
$$

LMZ740>746-312000-
SOUTHERN LAKE MICHIGAN

STATION/POSITION TIME  SKY/WX   TEMP WIND        PRES    VSBY
                                AIR  DIR/SP/G
                 (UTC)          (F)  (DEG/KT/KT) (MB)    (MI)
HARRISON CRIB    1900            35  230/  9/ 10   N/A
BURNHAM HARBOR   1900            36  270/  6/ 13   N/A
CALUMET HARBOR   1900            37  210/  8/ 14   N/A
BURNS HARBOR     NOT AVBL
MICHIGAN CITY    1900            36  200/ 14/ 17   N/A
$$

ABBREVIATIONS USED IN REMARKS
   TC - TEMPERATURE IN CELSIUS
  WCI - WIND CHILL INDEX
   HX - HEAT INDEX
  VSB - VISIBILITY
$$


USA.gov is the U.S. government's official web portal to all federal, state and local government web resources and services.